Change the Weather History Date:

Friday, April 11, 2014

  Actual Average Record
Temperature  
Mean Temperature 61 °F 60 °F  
Max Temperature 75 °F 73 °F 86 °F (1999)
Min Temperature 47 °F 48 °F 29 °F (1973)
Degree Days  
Heating Degree Days 4 6  
Month to date heating degree days 45 72  
Since 1 July heating degree days 2916 2667  
Cooling Degree Days 0 1  
Month to date cooling degree days 14 11  
Year to date cooling degree days 15 22  
Growing Degree Days 10 (Base 50)    
Moisture  
Dew Point 43 °F    
Average Humidity 56    
Maximum Humidity 77    
Minimum Humidity 35    
Precipitation  
Precipitation 0.00 in 0.10 in 1.58 in (1988)
Month to date precipitation 2.23 1.23  
Year to date precipitation 14.24 14.19  
Snow  
Snow 0.00 in 0.00 in 0.00 in (2002)
Month to date snowfall 0.0 0.1  
Since 1 July snowfall 2.8 3.0  
Snow Depth 0.00 in    
Sea Level Pressure  
Sea Level Pressure 30.19 in    
Wind  
Wind Speed 3 mph (SW)    
Max Wind Speed 14 mph    
Max Gust Speed 22 mph    
Visibility 10 miles    
Events      
T = Trace of Precipitation, MM = Missing Value Source: NWS Daily Summary

Daily Weather History Graph

Daily Weather History Graph

Search for Another Location

Airport or City:

Trip Planner

Search our weather history database for the weather conditions in past years. The results will help you decide how hot, cold, wet, or windy it might be!

Date:

Astronomy

Apr. 11, 2014 Rise Set
Actual Time 7:07 AM EDT 8:01 PM EDT
Civil Twilight 6:42 AM EDT 8:27 PM EDT
Nautical Twilight 6:11 AM EDT 8:57 PM EDT
Astronomical Twilight 5:40 AM EDT 9:28 PM EDT
Moon 4:49 PM EDT (4/11) 4:52 AM EDT (4/11)
Length of Visible Light 13h 45m
Length of Day
12h 54m
Waxing Gibbous, 87% of the Moon is Illuminated
Apr 11
Waxing Gibbous
Apr 15
Full
Apr 22
Last Quarter
Apr 29
New
May 6
First Quarter

Hourly Weather History & Observations

Time (EDT) Temp. Dew Point Humidity Pressure Visibility Wind Dir Wind Speed Gust Speed Precip Events Conditions
12:51 AM 59.0 °F 37.9 °F 46% 30.21 in 10.0 mi Variable 3.5 mph - N/A   Clear
1:51 AM 55.0 °F 39.0 °F 55% 30.21 in 10.0 mi Calm Calm - N/A   Clear
2:51 AM 52.0 °F 39.9 °F 63% 30.20 in 10.0 mi Calm Calm - N/A   Clear
3:51 AM 51.8 °F 39.2 °F 62% 30.21 in 10.0 mi Calm Calm - N/A   Clear
4:51 AM 53.1 °F 39.9 °F 61% 30.20 in 10.0 mi SW 4.6 mph - N/A   Clear
5:51 AM 51.1 °F 39.9 °F 66% 30.20 in 10.0 mi SW 3.5 mph - N/A   Clear
6:51 AM 50.0 °F 39.9 °F 68% 30.22 in 10.0 mi Calm Calm - N/A   Clear
7:51 AM 51.1 °F 42.1 °F 71% 30.24 in 10.0 mi Calm Calm - N/A   Clear
8:51 AM 57.0 °F 42.1 °F 57% 30.25 in 10.0 mi Calm Calm - N/A   Clear
9:51 AM 60.8 °F 44.6 °F 55% 30.26 in 10.0 mi SW 3.5 mph - N/A   Clear
10:51 AM 66.0 °F 45.0 °F 47% 30.26 in 10.0 mi Variable 3.5 mph - N/A   Clear
11:51 AM 68.0 °F 45.0 °F 43% 30.25 in 10.0 mi Variable 5.8 mph - N/A   Clear
12:51 PM 69.1 °F 44.1 °F 40% 30.22 in 10.0 mi SW 10.4 mph 21.9 mph N/A   Clear
1:51 PM 72.0 °F 46.0 °F 40% 30.20 in 10.0 mi WSW 8.1 mph 17.3 mph N/A   Clear
2:51 PM 73.0 °F 46.0 °F 38% 30.18 in 10.0 mi WSW 10.4 mph 18.4 mph N/A   Clear
3:51 PM 73.4 °F 46.4 °F 38% 30.16 in 10.0 mi Variable 5.8 mph - N/A   Clear
4:51 PM 73.9 °F 45.0 °F 35% 30.13 in 10.0 mi SW 9.2 mph - N/A   Clear
5:51 PM 73.0 °F 45.0 °F 37% 30.12 in 10.0 mi Variable 6.9 mph - N/A   Clear
6:51 PM 72.0 °F 45.0 °F 38% 30.13 in 10.0 mi WSW 5.8 mph - N/A   Clear
7:51 PM 70.0 °F 45.0 °F 41% 30.12 in 10.0 mi WSW 3.5 mph - N/A   Clear
8:51 PM 63.0 °F 46.9 °F 56% 30.14 in 10.0 mi Calm Calm - N/A   Clear
9:51 PM 63.0 °F 46.0 °F 54% 30.16 in 10.0 mi Calm Calm - N/A   Clear
10:51 PM 59.0 °F 46.9 °F 64% 30.17 in 10.0 mi Calm Calm - N/A   Clear
11:51 PM 55.9 °F 48.0 °F 75% 30.18 in 10.0 mi Calm Calm - N/A   Clear